200 serials | expertgps registration key serial numbers. convert expertgps registration key trail version to full software

Date Name Success Rate
2011-09-08 11:32:07 Microstation v5.xx.xx & 95 FULL REGISTRATION 61%
2009-10-17 06:32:24 Sobolsoft MS Word Convert Numbers To Text Software V7.0 72%
2011-09-08 10:42:09 DAS Registration 1.5.2 60%
2011-09-08 10:42:09 DAS Registration For CW5 0%
2011-09-08 10:42:09 DAS Registration v1.5.2 0%
2009-10-17 06:27:02 Lazarus Registration DLL V1.0 55%
2009-10-22 23:48:48 MemoriesonTV Registration 0%
2009-10-22 23:49:42 Registration Wizard 68%
2011-09-08 10:06:47 AnetHelpTool v4.02 Registration 52%
2011-09-08 10:22:13 ByeLines Registration 60%
2011-09-08 10:57:42 Ftgate Registration 82%
2011-09-08 11:15:16 Infodex v2.10 Registration 45%
2011-09-08 11:25:08 Lazarus Registration DLL v1.0 47%
2011-09-08 11:27:46 Mac Opener v3.0 Registration 57%
2011-09-08 11:32:59 mIRC v4.5+ Registration 35%
2011-09-08 11:32:59 mIRC v4.52 Registration 51%
2011-09-08 12:37:02 Quant v2.0 Registration 0%
2011-09-08 12:41:14 Registration Suite 1.0 56%
2011-09-08 12:41:14 Registration Suite v1.0 60%
2011-09-08 12:41:14 Registration Wizard Pro 5.01 46%
2011-09-08 12:41:14 Registration Wizard Pro v5.01 60%
2011-09-08 13:18:59 WinHacker 95 v2.02 Registration 57%
2012-12-13 05:12:00 Registration Key : 526EFEF086E09600449E667EA2DAE8E2E6D642BC 65%
2009-10-22 23:27:21 Ardamax Keylogger 2.9 Registration 56%
2009-10-22 23:48:49 Microsoft Registration Hacker - 39%
2009-10-22 23:49:57 SoudForge ALL (No Registration Requiered) 0%
2009-10-22 23:50:26 Valve's Registration Armor Key-Gen 60%
2011-09-08 10:21:42 Browserola v1.01 Temp. Registration 0%
2011-09-08 10:56:11 FontLook v3.1 Registration Code 70%
2011-09-08 11:31:51 Microsoft Registration Hacker 0%
2011-09-08 11:31:51 Microsoft Registration Hacker - 0%
2011-09-08 11:31:51 Microsoft Registration HackerMSREGHACK 0%
2011-09-08 11:42:43 Nic O'Matic 1.6 Registration Code 65%
2011-09-08 11:42:43 Nic O'Matic v1.6 Registration Code 50%
2011-09-08 12:34:57 PolyTrans V1.2E Registration Activator CD-Key 65%
2011-09-08 12:34:57 PolyView v2.9b16 Registration 0%
2011-09-08 12:54:09 Time Registration (German) 1.10 0%
2011-09-08 12:59:30 Super Collapse Registration 94%
2011-09-08 13:23:15 Yipe! II for Windows Registration #154 0%
2012-12-13 08:49:53 Softwarenetz Time Registration v1.10 0%
2012-12-13 08:49:56 Softwarenetz Time Registration v1.14 0%
2012-12-13 15:34:10 Valve's Registration Armor Key-Gen 0%
2009-10-22 23:48:17 Internet Download Manager Registration 55%
2011-09-08 10:25:56 Cheyenne Bitware V4.0 Registration Number 66%
2011-09-08 11:31:51 Microsoft Registration Hacker MSREGHACK 69%
2011-09-08 11:31:51 Microsoft Visual Basic 5 registration cd key 72%
2011-09-08 12:54:14 TimeSlips 10.5 enterprise - with registration code! 0%
2012-12-12 08:07:32 Download avast 5.0.667 Antivirus registration 0%
2012-12-13 05:12:00 Registration Code For PDFZilla Giveaway 42%
2012-12-13 05:12:00 Registration key for x-3gp-video-converter-38540 76%
2012-12-13 13:12:40 Total Image Converter Registration Key 56%
2011-09-08 11:30:16 MediaBlaze 98 v1.01 Win95/NT User: delphic Registration 0%
2012-12-13 05:12:00 Registration code:-826510-16101-266644 54%
2009-10-22 23:49:02 Norton Internet Security 2005 Registration Guide 0%
2011-09-08 09:58:40 Acoustica Mixcraft v1.10 Build 15 Registration Info by MaBi 60%
2012-12-12 19:40:26 Microsoft Visual Basic 2008 Express Edition Registration key 46%
2009-10-22 23:27:17 ALL THE SIMS Serial Numbers 75%
2012-12-12 21:48:23 NERO 9 ( TURN TRAIL TO FULL ) 0%
2009-10-17 06:32:24 Sobolsoft Excel Convert Numbers To Text V7.0 53%
2009-10-17 06:32:24 Sobolsoft Excel Convert Phone Numbers V7.0 0%
2012-12-12 21:51:48 Nero Burning Rom 11 Trail Version 70%
2009-10-17 06:24:21 Haggerty Associates Signed Numbers For The Vision Impaired V3.0.0 Network Version 35%
2009-10-22 23:27:28 AVG Anti-Virus Professional Edition 7.5 (full Version) Version 7.5.476 21-Jun-2007 64%
2012-12-12 14:36:38 Hypercam 2 serial full 0%
2012-12-13 07:17:00 Serial Visu+ RT (Pro) Full 0%
2009-10-22 23:47:54 Full Spectrum Warrior PC CD Serial 70%
2012-12-13 07:16:57 Serial Visu+ RT (Client) Full 51%
2012-12-13 15:25:55 USB Disk Security + Serial V5.4.0.6 (FULL) 65%
2009-10-17 06:21:18 Database Convert 2005.6.2 SERIAL 49%
2009-10-17 06:22:21 ESF Database Convert 3.6.2 Enterprise SERIAL 26%
2009-10-17 06:34:51 Video Convert Master 3.1 SERIAL 53%
2009-10-22 23:27:23 Ashampoo Burning Studio 2009 Full Serial 0%
2009-10-22 23:49:11 Office Xp 2002 (full Serial Not Request Activate) 0%
2012-12-12 03:19:38 Avg 2011 full licience serial upto 2018 74%
2009-10-17 06:34:51 Video Convert Master 2.5.2 SERIAL UNIQUE 0%
2009-10-22 23:48:49 Microsoft Windows 2000 Server Full BRASIL Serial 56%
2012-12-12 06:40:13 Counter Strike v1.8 [steam activation] works free full serial 74%
2011-09-08 13:17:21 Win 98 full version 0%
2009-10-22 23:45:52 Clone Dvd 4 Full Version 0%
2009-10-22 23:47:51 Flash 5 Eng Full Version 0%
2009-10-22 23:47:54 FTP Desktop 3.6.3 Full Version 67%
2009-10-22 23:49:22 Photoshop Cs3 Full Version 51%
2009-10-22 23:50:35 Winamp 5 Full Version 80%
2011-09-08 09:50:12 ABCpdf NET v4.0.31 Full Version 0%
2011-09-08 12:40:37 Reachout 7 FULL VERSION 0%
2011-09-08 12:40:37 ReachOut v7.0 full version 0%
2011-09-08 12:49:15 SnagIt v6.1.2 Full Version by DTG 0%
2011-09-08 12:58:38 Stealther Full Version 0%
2011-09-08 13:17:35 Winamp 5 Full Version 0%
2011-09-08 13:18:17 Windows 95 Full Version 0%
2012-12-12 03:24:16 AVG antivirus full version 20%
2012-12-13 12:33:17 The Sims 2 FULL VERSION 0%
2009-10-22 23:50:19 UltraISO - All Version Serial 68%
2009-10-17 06:20:07 CD Caretaker 1.0.6.1711 FULL Version 51%
2009-10-17 06:32:19 SlickEdit V11.0.2 For Linux Full Version-PKT 0%
2009-10-17 06:32:19 SlickEdit V11.0.2 For Windows Full Version-PKT 0%
2009-10-22 23:27:13 Adobe Acrobat 5.0 FULL VERSION 55%
2009-10-22 23:27:13 Adobe Photoshop 9.0 CS2 Full Version 58%
2009-10-22 23:27:14 Adobe Photoshop CS2 Full Version 59%
2009-10-22 23:47:54 Full Screen Caller Version 3.03 73%
2009-10-22 23:47:54 Full Version Of Sally's Salon 73%
2009-10-22 23:49:54 SlickEdit V11.0.2 For Linux Full Version 100%
2009-10-22 23:49:54 SlickEdit V11.0.2 For Windows Full Version 0%
2011-09-08 09:50:15 Ability Office v4.3.000 Full Version 0%
2011-09-08 09:57:40 Access Key v7.0.1180 Full Version 56%
2011-09-08 10:00:22 Adobe Acrobat v5.0 FULL VERSION 0%
2011-09-08 10:00:42 Adobe Photoshop v9.0 CS2 Full Version 43%
2011-09-08 10:24:24 CD Caretaker v1.0.6.1711 FULL Version 0%
2011-09-08 10:50:26 Excel Key v7.0.1180 Full Version 27%
2011-09-08 10:50:50 Eye Viewer 2.0 englis full version 0%
2011-09-08 11:31:54 Microsoft Windows 95 Full Version 0%
2011-09-08 12:40:54 Recipe Maker 4.0 Full Version 0%
2011-09-08 12:52:08 Techsmith SnagIt 6.1.2 Full Version 0%
2011-09-08 12:52:08 TechSmith SnagIt v6.1.2 Full Version 0%
2011-09-08 12:52:08 Techsmith SnagIt v6.11 Full Version by CAT 0%
2011-09-08 13:20:32 Word Key v7.0.1180 Full Version 61%
2012-12-12 03:15:07 Avast pro sai full version antivirus 64%
2012-12-12 05:09:48 Camtasia studio 8 full version 65%
2012-12-12 12:41:48 Full version of Sally's Salon 40%
2012-12-13 10:54:28 Sumotori Dreams Full Version 65%
2009-10-17 06:23:03 Flash2X EXE Packager Version 2.0.2 SERIAL 27%
2009-10-22 23:48:07 Hide IP Platinum - All Version Serial 78%
2009-10-22 23:50:00 STOPZilla The NEWEST VERSION!!! 3.5.5.1 (serial 1) 60%
2009-10-22 23:27:28 AVG Internet Security 8.0 Build 93 FULL VERSION 51%
2009-10-22 23:47:42 ESET Smart Security Full Version 0%
2009-10-22 23:47:54 Fruity Loops Studio 6.0.8 Full Version 60%
2011-09-08 10:28:58 Cool Edit 2000 Full Version: 1.51 0%
2011-09-08 10:28:58 Cool Edit 2000 Full Version: 1.52 0%
2011-09-08 10:28:58 Cool Edit 95 Full version Win95 0%
2011-09-08 10:44:51 Drawing Hand Screensaver Version: 7.0a Full 0%
2011-09-08 10:50:50 Eye Viewer Velázquez spanish full version 0%
2011-09-08 12:58:14 Stardock DesktopX Professional v2.40 Full Version 0%
2012-12-12 21:37:49 Need for Speed Most Wanted (full french Version) 0%
2012-12-13 09:46:44 SpeedBit Video Accelerator Full Version. rar 68%
2012-12-13 15:16:09 Uniblue Powersuite 2010 - full version 0%
2009-10-17 06:23:03 Flash2X Flash Hunter Version 2.0.3 SERIAL 29%
2009-10-17 06:23:03 Flash2X Screensaver Builder Version 2.0.2 SERIAL 23%
2009-10-17 06:23:03 Flash2X Wallpaper Maker Version 1.0.0 SERIAL 64%
2011-09-08 13:19:10 WinMPG Video Convert Version: v5.2 0%
2009-10-22 23:49:11 Office 2007 Enterprise Edition (Full Version Only) 0%
2009-10-22 23:49:27 Protel 99SE Full Trial Version Password 75%
2009-10-22 23:49:44 Roxio Easy Media Creator Version 7 Full 0%
2011-09-08 10:44:49 Drawing Hand Screen Saver 7.0a Full Version 0%
2011-09-08 10:44:49 Drawing Hand Screen Saver v7.0a Full Version 0%
2011-09-08 10:50:50 Eye Viewer Velázquez spanish full version 0%
2011-09-08 12:44:06 Roxio Easy Media Creator Version 7 Full 0%
2012-12-12 02:26:42 Ashampoo Home Designer Full Version License 56%
2012-12-13 16:13:48 Visio 2007 standard (full version, not trial) 90%
2009-10-22 23:47:59 Garmin Mapsource Bluechart Atlantic Version 6.5 Full Unlock 61%
2012-12-12 03:01:07 Autodesk Softimage 2011 (English) 32-Bit full version + original Cd key 16%
2012-12-12 03:13:04 Avast Antivirus(7.0.1451) full Version till 2038 46%
2012-12-13 15:17:16 UNIBLUE Registry Booster 2010 Full version keys 100%
2012-12-12 12:41:19 Full software kaspersky 11 0%
2011-09-08 10:12:45 AV Voice Changer Software v3.0 full 0%
2009-10-17 06:24:26 Hot Time Software Serial Timer V1.0.0 0%
2009-10-22 23:48:08 Hot Time Software Serial Timer V1.0.0-DVT 0%
2009-10-22 23:27:26 AV Voice Changer Software 3.0.74 Final Full 38%
2009-10-17 06:22:21 Ether Software My Video Converter V1.2.22 Serial-iMST 88%
2012-12-13 08:21:45 Sobolsoft Convert IPv4 to IPv6 Software 7.0 53%
2009-10-17 06:32:24 Sobolsoft MS Word Access Import Export And Convert Software V7.0 0%
2011-09-08 09:58:04 ACDSee v4.0 Trail 0%
2011-09-08 10:06:24 Amazon Trail 1.0 0%
2011-09-08 10:06:24 Amazon Trail v1.0 0%
2011-09-08 10:09:21 Atare Numbers 1.0.3J 74%
2011-09-08 10:09:21 Atare Numbers v1.0.3J 0%
2011-09-08 10:32:13 Cross Numbers 0%
2011-09-08 10:32:13 Cross-Numbers 1.0 0%
2011-09-08 10:32:13 Cross-Numbers v1.0 0%
2011-09-08 11:27:31 Lucky Numbers 1.0 0%
2011-09-08 11:27:31 Lucky Numbers v1.0 0%
2011-09-08 13:12:30 Visual Audit Trail v1.0 0%
2011-09-08 10:00:48 Adrenaline Charts & Numbers 0%
2011-09-08 11:18:28 JackHammer v1.0 by SausageReg Numbers 0%
2012-12-12 22:41:25 NOD 32 ESET,2011 Pre-Cracked Antivirus v3.0.6.2011 {FULL version} 75%
2009-10-22 23:27:19 Amazon DVD Shrinker V2.5.4 (Trail Then Register) 0%
2009-10-22 23:48:17 Interpol The Trail Of Doctor Chaos V1.0 0%
2009-10-22 23:48:49 Microsoft Office Trail-60 Days 70%
2009-10-22 23:50:10 The Shield Deluxe 2009 -trail 60%
2012-12-12 22:55:59 Norton internet security trail key 51%
2012-12-13 16:13:52 Visio Premium 2010 (Trail) 20%
2011-09-08 12:56:23 Tweak XP Pro v1.0.2 Tweak-XP Pro v1.0.2 Licence Application For Full Version 86%
2011-09-08 11:17:36 iWork '08 Pages 3.0.3, Numbers 1.0.3, Keynote 4.0.4 53%
2009-10-17 06:25:15 Interpol The Trail Of Doctor Chaos V1.0 KeyMaker Only 0%
2009-10-22 23:48:49 Microsoft Office 2007 Profesional Trail 25%
2009-10-22 23:49:59 Star Wars Galaxies Trail Key Code 0%
2011-09-08 11:06:26 Helm-Software MultiPlant II GPS Version: 4.17.73 0%
2009-10-17 06:24:21 Haggerty Associates Introduction To Signed Numbers 2 NE V1.0 13%
2009-10-17 06:24:21 Haggerty Associates Introduction To Signed Numbers 2 V1.0 11%
2012-12-12 19:33:09 Microsoft Office Home & Student 2007 Trail 0%
2009-10-22 23:48:08 Human Software Photo-Light Version: 1.5 0%
2009-10-22 23:49:41 Real Software RealBasic 2006R2 Pro Version 0%
2009-10-22 23:49:51 ScanMos CD Easy-Sticker Software Version 2.0c 32-Bit 0%
2011-09-08 10:06:45 AnDan Software Message Generator Version v1.20 62%
2011-09-08 10:24:16 CATIII.Software.Code.Signer.Pro Version: 1.2 0%
2009-10-17 06:32:24 Sobolsoft Extract Phone Numbers From Multiple Files V7.0 0%
2011-09-08 12:58:51 Sticky.Memo.Note.and.Reminder.Software Version: 7.0 0%
2011-09-08 13:22:19 X-Size II - Bodybuilding Software german Version vom 03-12-2008 0%
2009-10-17 06:32:24 Sobolsoft MS Word Extract Phone Numbers From Multiple Documents V7.0 20%
2009-10-17 06:32:40 Star Software Star Video Converter V1.2.14 Serial-iMST 67%
2009-10-22 23:50:36 Windows Server 2003 Trail 2003 0%